Location: ČR
(50.0000°N, 15.0000°E)
Time: 11:25:14
(UTC+02:00)

A-11 Canister half - Pass Details

Date: 22 March 2026
Orbit: 1514 x 1685 km, 47.2° (Epoch: 16 April)

Event Time Altitude Azimuth Distance (km) Brightness Sun altitude
Rises 15:23:24 0° 269° (W) 4,859 12.5 25.5°
Reaches altitude 10° 15:26:30 10° 268° (W) 3,891 12.2 25.1°
Maximum altitude 15:36:30 77° 186° (S) 1,719 9.8 23.7°
Drops below altitude 10° 15:46:40 10° 102° (ESE) 3,949 10.8 22.3°
Sets 15:49:50 0° 102° (ESE) 4,933 11.2 21.9°
